Airfield :
LOGIN :

Register | Disclaimer

   EN    FR    IT 

 










Legend :    VFR   Marginal VFR   IFR   Intensive IFR   Very Intensive IFR
Visi :
Ceiling :
>= 8 km
>= 3000ft
5 to 8 km
1000 to 3000 ft
1500m to 5 km
500 to 1000 ft
800 to 1500m
200 to 500 ft
< 800m
< 200 ft
Symbols :   Thunderstorms  Fog  Heavy snow  Heavy precipitations  Wind > 20 kt
SIGMETs :     Misc.  Thunderstorms  Icing  Turbulence  Mountain Waves  Volcanic Ashes







- Airport Elevation : 741 ft
- IATA code : PED


LKPD - Pardubice AB

CURRENT METAR :
  • 150000Z 15008KT CAVOK 03/M02 Q0996 RMK BLU

EXPIRED METARs :
  • 142300Z 18007KT CAVOK 04/M02 Q0997
  • 142200Z 20007KT CAVOK 04/M03 Q0997 RMK BLU

TAF TAF LKPD
Valid from the 15 at 00:00 until the 16 at 00:00 UTC


142300Z 1500/1600 18008KT 9999 SCT045
TEMPO 1504/1511 5000 RASN SCT010 BKN020
BECMG 1507/1509 25014G24KT SCT030
BECMG 1514/1516 27008KT CAVOK
BECMG 1517/1519 VRB02KT
TEMPO 1521/1600 4000 SNRA SCT010 OVC020
No reported NOTAMs for that airfield.



MET'MAP, your aeronautical weather chart ! - Copyright ORBIFLY December 2007 - Disclaimer

ORBIFLY MET'MAP TEAM :

Programming & Development : Alexandra Zaïnal
Concept & Development : Baudouin d'Aumeries
Co-Development & Prog : Marc-Olivier Méhu
Technical & hardware support : Manuel Goepfert

Contact : metmap@orbifly.com




SOURCES & CREDITS :

   NOAA